Weather in Elvas

Portugal     38°52′42″N   7°09′57″W
temp.,
°C
wind,
m/s
gust,
m/s
humid.,
%
clouds,
%
prec.,
mm/h
press.,
hPa
HPBL,
m
6 march, sat
sat600:00+9ne238978 0.0 101860
03:00+9ne358681 0.0 1018137
06:00+7ne378365 0.0 1018123
09:00+10ne69810 0.0 1020265
12:00+15ene45680 0.0 1019656
15:00+17ne35560 0.0 10171329
18:00+14n46730 0.0 1017104
21:00+10n34760 0.0 101956
7 march, sun
sun700:00+9n23730 0.0 101927
03:00+8nne12810 0.0 101922
06:00+7nne22850 0.0 101924
09:00+11ne36800 0.0 1019277
12:00+16ne33650 0.0 1018733
15:00+17wnw235526 0.0 10161604
18:00+13wnw347525 0.1 101574
21:00+9wnw35910 0.0 101790
8 march, mon
mon800:00+7wnw46940 0.0 1017122
03:00+5w35960 0.0 1016104
06:00+4wnw34995 0.0 1016127
09:00+6wnw339075 0.0 1017297
12:00+11w327657 0.0 1017483
15:00+14w33640 0.0 1015815
18:00+12w35790 0.0 1015108
21:00+7wnw45940 0.0 1018106
9 march, tue
tue900:00+6nw23930 0.0 101945
03:00+6nnw22850 0.0 101922
06:00+5n11800 0.0 101922
09:00+9ne36710 0.0 1021352
12:00+14ne34640 0.0 1020757
15:00+16nne235522 0.0 10191527
18:00+12n357313 0.0 102095
21:00+8n23650 0.0 102322
10 march, wed
wed1000:00+6nne016828 0.0 102322
03:00+5nnw117162 0.0 102322
06:00+5ene117535 0.0 102422
09:00+9ne126319 0.0 1025169
12:00+15ene225410 0.0 1025702
15:00+17ne02470 0.0 10241173
18:00+13w33720 0.0 102444
21:00+9nw23720 0.0 102622